Hourly Weather Roundup
Issued by NWS

Home | Current Version | Previous Version | Text Only | Print | Product List | Glossary On
Versions: 1 2 3 4 5 6 7 8 9 10 11 12 13 14 15 16 17 18 19 20 21 22 23 24 25 26 27 28 29 30 31 32 33 34 35 36 37 38 39 40 41 42 43 44 45 46 47 48 49 50
000
NZUS43 KILX 030110
HWRCRS

CRS HOURLY WEATHER ROUNDUP
NATIONAL WEATHER SERVICE, LINCOLN IL
800 PM CDT SUN AUG 02 2015


CITY           SKY/WX    TMP DP  RH WIND       PRES   REMARKS
CHAMPAIGN      CLEAR     80  72  76 S6        29.80F HX  84
LAWRENCEVILLE  CLEAR     80  72  76 S8        29.85F HX  84
PEORIA         CLEAR     86  71  60 SW13      29.77R HX  91
SPRINGFIELD    CLEAR     84  69  60 SW8       29.79F HX  88
$$


CITY           SKY/WX    TMP DP  RH WIND       PRES   REMARKS
BLOOMINGTON    CLEAR     83  71  66 SW13      29.79R HX  87
DECATUR        CLEAR     83  71  67 SW10      29.80S HX  87
EFFINGHAM      CLEAR     83  68  60 SE5       29.84S HX  86
FLORA          CLEAR     82  70  66 S6        29.84F HX  86
GALESBURG      CLEAR     82  73  74 SW9       29.77R HX  87
JACKSONVILLE   CLEAR     84  73  68 SW6       29.80R HX  90
LACON          CLEAR     84  71  65 SW9       29.74R HX  88
LINCOLN        CLEAR     84  68  58 SW6       29.77S HX  88
LITCHFIELD     CLEAR     80  71  74 SW3       29.83R HX  83

CITY           SKY/WX    TMP DP  RH WIND       PRES   REMARKS
MACOMB         CLEAR     82  73  72 SW7       29.80R HX  88
MATTOON        CLEAR     82  69  64 S5        29.81F HX  85
MOLINE         MOCLDY    86  74  67 SW12      29.73R HX  94
OLNEY          CLEAR     81  72  74 S3        29.85S HX  84
PARIS          CLEAR     80  71  73 S5        29.82S HX  83
PONTIAC        CLEAR     84  71  65 SW10G20   29.75R HX  89
QUINCY         CLEAR     82  73  74 SW7       29.81R HX  87
RANTOUL        CLEAR     84  71  65 SW9       29.78F HX  88
ROBINSON       CLEAR     80  71  73 S7        29.85S HX  84
TAYLORVILLE    CLEAR     81  72  74 SW7       29.81S HX  84
TERRE HAUTE    CLEAR     83  70  64 S9        29.83F HX  87
$$


CITY           SKY/WX    TMP DP  RH WIND       PRES   REMARKS
BURLINGTON     MOCLDY    83  73  72 SW9       29.78R HX  89
CHICAGO        MOCLDY    86  71  60 SW18G31   29.66S HX  91
DES MOINES     MOCLDY    77  64  64 S5        29.79S
EVANSVILLE     CLEAR     83  67  58 S6        29.87F HX  85
INDIANAPOLIS   PTCLDY    81  65  58 S13       29.83S HX  83
KANSAS CITY    MOCLDY    84  74  71 SW5       29.85R HX  91
MILWAUKEE      TSTM      82  66  58 NE20G29   29.59R HX  84
ST LOUIS       PTCLDY    90  66  45 W8        29.84S HX  92
$$




USA.gov is the U.S. government's official web portal to all federal, state and local government web resources and services.